GFSFLT2_sfc_30mbdewp_030.txt.gz
Dewpoint
23 25 24 23 26 26 23 21 22 23 25 27 27 28 29 30 30 31 31 31 31 32 31 32 32 33 35
28 29 29 29 29 27 25 23 23 23 25 27 27 28 29 29 30 30 30 30 31 31 31 31 31 31 32
29 26 27 29 30 29 27 23 23 23 23 21 23 26 28 29 29 29 29 30 30 30 30 31 31 31 31
24 26 27 28 27 23 22 22 21 20 20 23 24 25 26 27 27 28 28 29 29 29 29 29 29 30 30
27 26 24 21 20 21 21 20 20 21 20 21 20 20 21 22 23 23 25 26 27 29 29 30 29 29 30
26 23 21 22 20 20 21 21 20 21 20 20 20 20 20 20 21 23 25 27 28 28 29 29 29 29 30
24 21 20 21 24 25 23 22 21 21 20 19 19 19 20 19 21 22 24 26 27 28 29 29 29 29 29
23 23 23 22 23 24 23 22 19 19 19 19 18 18 19 20 21 22 23 24 26 27 27 28 28 28 28
23 24 25 24 23 21 19 20 20 18 19 18 18 18 19 20 20 20 22 23 24 26 26 26 27 27 27
19 18 17 15 17 19 20 21 20 20 19 19 19 19 19 18 18 19 20 21 22 23 24 25 25 26 26
14 11 13 16 17 18 20 21 21 21 21 22 22 21 22 21 20 20 20 21 21 22 22 23 24 25 25
11 13 16 20 22 23 23 23 23 23 24 25 22 21 21 20 19 19 20 22 23 24 25 25 25 26 26
15 18 20 21 22 23 24 24 24 24 25 25 24 22 22 20 20 21 21 22 24 24 26 26 26 26 25
17 17 18 19 19 21 21 22 22 22 25 27 26 25 21 22 22 21 21 21 22 24 25 26 26 26 25
19 18 18 18 19 20 21 21 20 21 22 24 25 26 25 24 21 21 21 21 23 24 24 24 25 26 26
19 19 19 19 19 20 21 21 20 21 22 23 23 23 23 23 24 23 23 24 25 26 26 26 25 26 27
19 19 19 19 19 19 20 20 21 22 22 23 23 24 22 19 21 22 22 24 25 25 26 26 26 26 27

GFSFLT2_sfc_30mbdewp_033.txt.gz
Dewpoint
29 30 29 30 32 32 31 27 25 25 26 27 29 30 30 30 30 31 31 32 32 33 33 33 33 34 35
31 31 31 32 32 30 29 28 27 27 28 28 29 29 27 28 29 30 31 31 31 31 32 32 32 32 32
31 31 31 30 29 29 29 29 27 24 24 23 23 24 26 28 29 30 30 30 31 30 31 31 31 31 32
30 29 27 27 28 27 24 24 23 22 22 22 23 24 26 26 26 27 28 29 29 30 30 30 30 30 31
29 27 26 26 24 22 22 22 22 23 22 22 22 23 23 23 23 23 24 25 26 28 29 30 30 30 30
27 26 22 21 22 22 24 24 22 23 21 21 23 22 22 22 22 23 24 25 27 28 29 29 29 29 30
26 23 22 22 25 25 24 24 23 22 22 20 21 21 22 21 21 23 24 25 26 27 28 29 29 28 29
25 24 24 24 24 23 24 23 22 21 21 20 21 20 21 21 22 23 24 25 26 26 27 28 28 28 28
24 23 24 25 24 24 23 21 20 21 21 21 20 21 21 21 22 22 22 23 24 25 26 27 27 28 27
20 19 18 17 16 18 20 21 22 21 21 20 21 22 22 21 21 22 22 23 24 24 25 25 25 26 25
17 13 12 15 17 19 20 22 22 21 22 24 25 24 22 22 22 22 22 22 23 23 24 24 25 26 26
10 13 16 21 24 24 25 25 25 24 24 25 24 22 22 20 19 20 21 22 23 24 26 26 26 27 26
15 19 21 23 24 23 24 25 26 25 25 25 25 24 23 21 20 20 21 21 22 23 25 27 27 27 26
18 18 19 20 21 22 22 21 23 22 24 26 27 27 24 24 23 21 21 21 22 23 24 25 25 26 26
20 20 20 20 20 21 21 21 21 20 21 23 25 26 27 27 23 22 22 22 23 24 24 25 25 26 26
20 20 20 20 19 20 20 21 21 21 21 23 23 24 24 24 25 24 24 25 25 25 25 25 25 26 27
21 20 21 21 19 19 19 20 20 21 21 23 23 23 21 20 21 24 23 23 23 24 24 25 25 26 27

GFSFLT2_sfc_30mbdewp_036.txt.gz
Dewpoint
32 33 33 33 34 34 33 33 30 31 29 29 30 31 31 31 32 31 32 32 32 33 33 34 33 34 34
32 32 32 33 33 33 32 29 28 28 29 30 30 29 29 28 28 29 30 31 32 32 32 32 32 33 35
32 32 32 32 32 32 30 30 29 29 28 24 24 25 26 27 29 30 30 31 31 31 31 31 31 31 31
31 31 31 32 31 28 27 26 26 24 24 24 24 24 24 25 25 26 26 27 28 29 30 30 30 30 31
30 30 28 27 26 26 25 24 24 24 23 23 22 23 23 25 25 23 24 26 27 27 28 29 29 29 30
29 27 26 22 22 24 24 22 20 24 22 22 22 22 23 23 24 25 25 26 26 27 28 29 29 29 30
28 25 22 23 24 23 23 23 23 24 23 22 22 21 23 22 23 24 25 26 27 28 28 29 29 29 28
26 25 25 25 25 24 24 23 23 23 22 20 21 21 22 22 24 24 25 26 26 26 27 28 28 28 28
24 23 23 24 25 25 23 22 20 20 22 21 21 21 22 22 22 24 24 24 25 26 27 27 28 28 27
19 20 20 18 18 19 20 17 18 20 21 22 22 22 21 23 22 22 23 24 24 25 25 26 26 26 27
19 15 13 14 16 19 20 19 19 21 22 23 23 23 22 21 22 21 21 22 22 23 23 25 26 26 27
11 12 14 20 23 24 24 23 24 24 25 25 23 22 21 20 19 20 20 21 22 23 23 24 25 26 26
15 18 20 21 21 21 22 24 25 25 25 24 24 24 24 21 21 21 21 22 23 23 23 24 24 24 24
18 19 20 20 19 20 21 23 22 23 23 23 24 24 23 24 24 23 23 22 23 23 24 24 24 24 25
20 20 20 20 21 22 21 22 21 20 20 22 23 25 25 26 24 23 23 22 23 24 24 24 25 25 26
21 20 20 21 20 21 22 21 20 20 20 21 22 23 24 24 26 24 24 24 24 25 26 25 24 25 25
22 22 22 21 20 20 20 20 19 20 20 22 22 21 19 17 20 23 22 24 24 24 24 24 24 24 25

GFSFLT2_sfc_30mbdewp_042.txt.gz
Dewpoint
35 35 37 38 40 38 39 39 38 40 40 40 40 41 40 36 34 34 33 33 33 33 33 34 34 35 34
33 33 33 36 35 35 36 37 36 37 39 40 38 35 33 33 32 31 30 31 32 32 32 32 33 33 34
32 32 32 33 32 33 33 34 35 37 35 32 33 33 29 28 29 29 29 30 30 31 31 31 31 31 32
32 32 32 32 32 31 31 32 30 28 28 28 27 28 28 27 27 27 28 28 28 29 29 30 30 30 31
31 31 31 30 30 29 28 26 25 25 24 23 22 22 23 25 26 26 26 27 28 30 30 30 30 30 30
30 29 27 26 24 24 23 22 20 23 22 22 24 23 23 23 25 26 28 29 29 29 30 30 30 30 31
27 26 24 23 23 23 23 22 21 22 24 21 22 20 22 22 25 26 27 28 29 29 30 30 30 31 31
26 26 25 25 24 24 24 23 23 23 24 19 21 20 21 22 24 26 27 28 29 28 29 29 30 30 30
25 25 24 24 26 25 23 22 19 19 21 20 21 21 22 22 23 25 27 27 26 27 28 28 28 29 29
20 19 19 17 20 20 20 15 15 16 20 21 21 22 19 20 22 21 21 24 25 26 26 26 27 27 27
17 14 13 15 19 22 19 16 15 16 19 23 22 24 22 20 22 22 21 22 22 23 23 25 26 27 27
13 14 17 19 20 21 22 22 20 21 21 22 23 22 21 20 19 20 21 22 22 23 23 24 26 27 26
15 17 18 19 19 19 20 21 22 22 24 25 25 24 24 21 20 20 21 22 22 23 24 24 24 24 23
18 20 21 20 20 21 20 21 21 21 21 22 23 25 23 23 22 21 21 21 22 23 24 25 25 25 25
20 20 19 19 20 21 22 21 20 19 19 19 20 21 23 23 21 21 21 21 22 23 24 24 24 25 25
19 19 19 19 20 21 23 21 20 19 18 18 18 20 21 22 24 22 22 22 23 24 24 23 22 23 25
19 19 19 19 20 19 19 19 18 18 18 18 17 17 15 14 16 19 22 21 21 21 21 22 22 22 23

GFSFLT2_sfc_30mbdewp_045.txt.gz
Dewpoint
36 36 37 39 40 39 40 41 40 42 43 42 42 42 41 41 41 40 40 38 37 36 35 35 35 35 36
34 33 34 36 36 37 38 38 37 38 39 39 40 40 40 39 37 35 35 33 32 32 33 34 34 34 34
33 33 32 33 32 32 33 34 36 37 38 39 39 37 34 34 32 31 31 31 31 31 32 32 32 32 32
33 32 32 32 32 32 31 32 32 32 30 30 30 29 29 30 30 29 28 29 30 31 30 30 31 31 31
31 31 31 31 30 30 30 28 25 25 24 23 22 22 22 25 25 25 26 27 28 29 30 31 31 31 31
30 28 26 26 24 24 24 22 20 23 22 21 23 22 23 23 25 26 27 28 29 30 30 31 31 30 31
26 26 24 23 23 23 22 21 21 22 23 21 22 20 21 22 25 26 27 28 29 30 30 31 31 31 30
25 25 25 24 24 23 23 23 23 23 24 20 21 20 21 22 24 26 27 28 29 30 30 30 30 31 31
25 25 25 26 26 25 22 22 20 18 21 20 21 21 22 22 23 27 28 28 27 27 28 29 29 29 29
20 18 17 15 19 22 21 16 15 15 19 21 21 21 18 19 21 21 22 23 25 26 27 27 27 28 27
16 14 14 18 22 23 20 15 15 15 19 22 21 23 22 20 21 21 21 21 21 22 24 25 26 27 27
13 15 17 18 19 20 20 21 19 20 21 20 21 21 21 20 19 20 20 21 22 22 23 24 25 27 28
16 17 18 18 19 19 20 21 21 21 23 22 21 22 23 21 20 20 20 21 22 22 22 23 23 24 24
18 20 21 20 20 20 21 20 20 20 21 21 21 22 22 22 22 21 20 20 20 22 23 24 24 25 25
20 19 19 19 19 20 20 21 19 19 19 20 20 20 20 20 19 20 20 21 21 22 22 22 23 24 25
19 19 19 19 19 19 20 20 19 18 18 18 18 17 18 19 22 21 21 21 22 22 23 22 22 22 23
17 17 17 16 19 18 17 17 17 17 17 18 16 16 14 13 15 18 21 21 21 21 22 22 21 21 22

GFSFLT2_sfc_30mbdewp_048.txt.gz
Dewpoint
36 36 37 39 39 40 40 41 41 43 44 44 44 44 44 43 42 42 42 41 41 41 42 41 39 38 36
34 34 34 36 37 37 38 38 38 39 40 40 40 40 41 41 41 41 40 39 38 36 34 33 34 35 35
34 33 33 33 33 33 34 34 36 37 38 39 40 41 40 39 39 39 35 33 32 32 32 32 33 33 33
33 32 33 32 33 32 31 33 33 34 34 33 32 31 31 31 31 31 31 30 30 30 31 31 31 31 32
31 31 31 30 30 30 29 27 25 25 24 24 23 22 22 25 25 25 24 25 27 28 29 30 31 31 32
28 26 25 24 24 24 23 21 20 23 22 21 23 22 22 23 25 26 27 27 28 29 30 31 31 31 31
26 25 24 23 23 22 22 21 21 22 23 21 22 20 20 21 25 26 28 29 29 30 31 31 30 30 30
25 24 24 24 24 23 23 23 24 23 24 19 21 19 21 22 25 26 28 28 29 30 30 31 30 30 31
25 25 25 25 25 25 23 21 20 18 21 21 20 21 22 22 22 27 27 28 29 29 29 29 30 30 30
18 16 15 15 20 23 21 17 15 14 19 21 20 20 17 19 20 21 21 23 25 26 27 28 28 28 27
14 13 17 20 22 23 20 15 15 15 18 22 20 22 20 19 21 21 21 21 21 22 23 24 26 27 27
13 15 17 18 19 20 20 21 18 19 20 20 20 20 19 19 19 20 20 21 21 21 22 24 26 25 27
17 17 18 19 19 19 20 21 20 20 23 21 20 19 20 19 19 20 21 21 21 22 22 22 22 23 23
19 20 20 19 20 20 19 19 19 19 20 20 20 19 20 21 21 20 20 19 20 21 21 22 23 24 24
19 20 19 19 19 19 19 19 19 18 18 19 20 20 19 19 18 18 18 19 20 21 22 21 22 23 24
18 19 19 19 19 18 18 18 18 17 16 17 17 17 16 17 21 18 19 19 21 22 23 21 21 22 23
15 15 14 14 17 16 16 15 15 15 15 16 15 15 13 13 15 19 20 20 21 21 21 21 20 20 22

GFSFLT2_sfc_30mbdewp_051.txt.gz
Dewpoint
37 36 37 39 39 40 40 40 40 44 44 43 43 43 43 44 44 43 42 44 43 44 43 43 44 42 41
35 35 35 36 37 37 38 38 38 39 40 40 41 40 40 40 40 42 41 41 41 42 42 40 38 37 36
35 35 35 34 34 35 35 36 37 38 38 38 39 39 41 40 40 40 40 40 38 38 36 35 34 34 34
34 34 34 34 34 33 32 34 33 31 31 32 33 32 33 33 33 32 31 32 33 33 32 32 31 32 32
32 31 31 30 29 28 28 25 25 25 24 24 24 24 24 25 26 26 26 26 26 27 28 29 30 31 32
28 25 25 24 24 24 24 22 21 24 23 21 23 20 20 20 22 25 25 26 26 27 29 31 31 32 32
24 24 23 24 24 25 24 23 21 23 23 19 21 18 19 20 24 26 28 29 29 30 31 31 31 31 31
25 25 25 26 25 25 25 24 22 22 23 19 20 19 21 22 25 27 28 29 29 30 31 31 31 30 31
24 24 24 24 24 26 24 22 18 16 19 20 19 20 21 21 21 27 27 28 29 30 30 31 30 30 31
16 14 15 17 23 22 23 19 18 17 18 21 20 20 21 19 20 21 21 22 25 27 29 29 29 29 28
12 14 18 20 21 22 21 21 20 20 19 23 23 21 21 21 20 21 21 21 21 22 23 25 26 26 26
14 16 18 20 21 22 22 23 22 22 23 23 22 21 21 20 19 20 20 21 22 23 24 25 25 26 28
17 19 20 21 22 22 23 22 22 23 23 24 22 22 21 20 20 20 21 21 22 23 24 24 24 24 23
19 20 20 21 21 21 21 20 20 19 22 24 23 22 21 21 21 20 21 21 21 22 22 23 23 23 24
19 19 19 19 19 20 20 19 18 18 17 18 20 21 21 21 19 19 19 19 21 22 22 22 23 23 23
18 18 18 19 19 18 19 18 17 16 15 16 17 17 18 19 22 20 20 20 21 22 23 22 22 23 23
16 16 16 15 16 16 16 16 15 14 15 16 17 17 15 15 17 22 21 21 21 21 21 22 22 23 22

GFSFLT2_sfc_30mbdewp_054.txt.gz
Dewpoint
40 38 39 39 39 40 40 40 40 41 43 43 43 43 43 44 44 44 43 43 45 44 43 44 44 45 43
39 38 38 37 37 38 37 38 39 39 41 41 41 41 41 41 41 41 42 41 41 42 43 42 42 41 41
37 37 36 35 35 36 36 36 36 35 36 37 36 37 38 40 40 40 41 41 41 40 39 38 38 37 36
36 35 35 34 35 33 33 33 31 29 28 27 29 32 32 33 34 32 32 33 34 35 35 34 34 34 33
34 33 32 30 29 28 26 24 24 24 23 22 22 23 24 26 27 28 28 28 29 30 30 29 29 30 31
32 28 26 24 23 23 23 22 21 24 21 18 19 18 17 18 18 24 25 26 26 26 26 27 30 31 31
22 21 20 22 25 26 24 23 20 20 21 17 17 16 18 18 23 27 28 29 29 30 30 31 31 32 31
24 25 25 26 25 25 24 23 20 18 20 18 18 18 20 21 23 27 28 30 30 30 31 31 32 31 31
24 23 23 24 24 23 24 20 18 13 17 19 19 19 20 20 21 26 27 27 28 30 31 31 30 31 32
15 12 14 16 22 19 20 22 19 21 19 21 21 21 23 21 20 21 22 22 24 25 28 29 31 31 30
10 11 15 18 19 21 22 24 24 23 22 23 24 23 23 23 22 21 22 22 23 23 23 26 28 29 28
11 13 16 20 22 23 23 24 24 24 25 25 23 23 22 22 21 21 21 23 24 25 25 26 26 27 27
15 19 21 23 25 24 25 24 24 24 24 25 24 23 22 21 21 22 22 22 24 25 26 26 26 26 26
18 18 19 23 22 22 22 22 21 20 24 25 25 24 21 21 21 21 22 22 24 24 25 25 25 24 25
18 17 17 18 20 20 21 20 19 18 19 20 22 23 23 23 21 21 21 22 24 25 24 23 25 25 25
18 18 17 18 18 18 19 19 18 17 17 17 18 19 20 22 23 23 22 23 24 25 24 23 23 26 25
17 18 18 18 17 16 16 16 16 16 16 18 20 20 18 18 20 24 23 23 23 23 24 24 24 25 25

GFSFLT2_sfc_30mbdewp_057.txt.gz
Dewpoint
41 40 40 39 39 39 39 39 41 41 43 43 43 43 43 43 44 44 44 45 46 46 46 46 45 45 44
39 38 38 38 37 37 37 37 38 38 40 40 40 41 42 42 41 41 42 42 42 42 43 42 42 42 42
38 38 38 36 35 36 36 36 36 34 32 34 35 36 37 38 39 39 40 41 41 41 40 40 40 40 39
37 37 36 35 35 34 32 33 30 28 27 27 28 29 31 33 34 33 33 34 35 36 37 36 36 36 36
35 35 33 32 29 28 26 25 25 25 24 23 21 23 23 25 28 29 28 29 30 32 33 33 33 32 31
32 31 28 24 22 24 24 24 23 24 22 20 20 19 18 18 24 25 27 27 26 27 27 27 27 28 30
23 21 21 24 27 27 26 24 23 22 21 19 18 18 20 19 22 26 28 29 30 30 30 30 31 31 32
25 26 26 27 26 25 25 24 23 21 20 19 20 20 22 22 26 26 30 30 31 31 31 32 32 32 32
24 23 22 23 23 24 25 23 22 14 19 20 22 21 22 22 23 24 28 26 26 27 29 31 32 31 30
19 18 17 16 21 20 20 23 23 23 22 22 24 23 24 24 22 23 24 24 24 25 26 29 30 31 32
13 11 14 18 19 21 22 25 25 24 25 24 24 24 24 24 24 24 24 23 24 25 25 26 26 29 29
10 11 14 19 23 24 25 25 26 25 26 26 24 23 23 21 22 23 24 25 25 25 27 28 28 28 28
13 17 21 25 26 25 26 25 25 26 26 26 25 24 23 22 21 22 22 24 24 25 26 27 28 28 26
17 19 20 23 24 24 23 24 23 23 25 26 26 24 23 23 23 22 22 22 24 25 26 26 25 26 26
18 18 18 18 20 22 22 22 22 21 21 25 26 26 25 23 22 21 21 22 24 25 26 24 24 26 26
19 20 19 19 20 20 21 20 20 21 20 20 20 21 21 22 23 22 22 23 25 26 25 24 23 25 26
19 20 20 21 20 19 19 19 19 19 19 20 20 20 18 17 20 24 24 24 24 24 24 25 24 25 26

GFSFLT2_sfc_30mbdewp_063.txt.gz
Dewpoint
40 39 39 37 37 38 38 37 38 39 40 41 41 41 43 43 43 44 46 47 48 48 48 48 48 48 49
39 37 37 36 35 36 36 37 36 35 36 37 38 38 40 41 41 42 42 42 43 44 45 45 45 45 45
37 38 37 36 34 34 35 34 36 31 30 29 30 31 34 38 38 38 38 41 41 41 41 40 40 41 41
36 36 36 36 33 30 26 26 27 24 25 28 27 27 29 29 33 32 32 34 35 37 38 38 37 37 37
35 34 34 32 26 25 23 24 24 22 21 20 20 20 21 27 29 29 28 28 29 31 33 34 35 36 36
33 31 26 23 25 24 24 23 19 24 20 17 20 18 21 19 24 26 27 29 29 30 28 28 29 30 30
25 23 23 24 24 25 24 23 22 23 21 13 21 20 22 22 26 26 29 28 30 31 32 32 32 31 31
25 26 26 27 26 25 24 24 24 22 20 15 21 22 23 23 27 27 30 29 28 29 29 30 33 33 33
25 23 22 22 23 22 22 22 20 19 22 19 22 23 23 25 24 26 27 28 27 27 27 28 29 31 33
19 22 18 17 20 20 20 19 21 21 22 21 22 23 19 23 25 25 24 26 27 27 28 28 28 29 28
17 13 13 17 19 22 23 20 21 22 27 22 21 22 21 22 22 23 24 23 23 24 26 28 29 29 28
13 11 12 15 20 22 24 24 24 23 25 23 21 21 19 19 19 22 22 22 23 23 23 25 27 28 28
12 13 16 21 24 23 24 24 24 24 25 23 22 20 20 19 19 21 22 21 22 22 23 23 23 24 24
14 16 22 23 23 22 22 23 22 22 24 25 23 22 22 21 21 20 21 19 20 21 22 23 24 25 25
17 17 18 19 20 21 22 22 21 20 20 21 22 23 22 21 21 21 21 21 21 21 21 21 23 25 26
15 17 19 19 19 19 20 20 19 19 18 18 19 19 19 21 25 22 22 21 22 21 22 22 22 24 24
15 15 17 17 19 19 19 19 18 17 17 17 17 17 17 16 18 23 22 20 20 23 23 23 21 21 23

GFSFLT2_sfc_30mbdewp_066.txt.gz
Dewpoint
40 39 38 37 37 37 37 37 37 39 40 40 41 41 42 43 44 44 45 46 47 48 48 49 49 49 50
39 38 37 37 35 35 36 36 35 36 34 32 35 37 40 40 41 42 42 43 44 45 45 45 45 46 46
37 37 37 36 33 32 35 30 32 27 29 30 29 31 32 37 38 38 38 40 41 41 41 41 40 41 42
36 36 36 35 33 28 26 25 26 23 24 25 27 28 28 29 32 30 32 34 35 36 38 38 38 38 38
35 35 34 33 29 25 23 23 23 23 21 19 21 19 21 28 29 27 26 27 28 30 32 34 34 35 36
33 32 28 25 25 24 24 22 16 24 21 17 20 20 22 19 25 26 27 29 30 30 30 29 29 30 30
30 28 24 24 24 24 24 23 21 23 21 13 21 20 22 22 28 27 30 29 31 32 33 33 33 33 32
24 24 25 26 26 25 23 23 23 22 20 14 21 22 23 24 28 27 29 29 29 28 29 30 31 33 33
27 27 28 28 26 24 24 21 18 19 22 20 21 22 23 24 24 29 29 29 28 28 28 29 30 30 30
22 20 18 18 23 19 22 19 20 20 22 22 22 22 18 22 25 24 24 28 28 29 28 28 28 28 28
18 14 13 18 21 21 21 19 19 21 25 22 20 21 20 20 21 23 23 22 22 23 26 25 27 28 28
15 11 12 16 20 22 23 23 23 22 25 22 21 20 18 17 17 21 21 22 23 22 22 25 24 24 26
14 13 15 18 20 23 24 24 23 24 25 22 22 18 19 19 17 19 20 20 21 21 21 21 22 23 23
15 14 21 22 23 22 21 22 22 22 23 24 22 20 21 21 20 20 20 19 19 20 21 22 22 24 24
15 16 19 22 23 21 21 21 21 20 20 21 22 22 21 21 21 21 21 20 20 20 21 20 21 22 24
17 17 17 18 18 19 19 20 19 19 19 18 18 18 18 20 23 21 21 21 21 21 21 20 21 22 23
15 14 15 17 20 18 18 18 17 17 17 16 16 17 16 14 17 24 22 21 20 20 21 21 21 21 22

GFSFLT2_sfc_30mbdewp_069.txt.gz
Dewpoint
40 39 38 37 37 37 37 37 37 38 40 38 38 41 42 43 44 44 46 47 48 50 51 51 50 50 51
39 38 38 37 35 35 35 36 35 35 33 33 33 36 40 40 40 42 42 43 43 44 45 45 46 47 48
37 38 37 36 33 32 34 30 27 26 30 32 31 31 32 37 37 37 38 39 41 41 41 41 41 42 42
37 36 36 35 33 29 27 25 25 23 24 25 27 27 30 31 30 30 30 32 35 36 37 38 38 38 38
36 36 35 33 31 27 25 23 23 23 20 20 20 19 22 25 26 26 28 28 29 30 32 33 34 35 36
35 33 31 28 26 24 23 21 14 24 21 17 21 20 22 25 28 27 29 29 31 31 32 31 30 30 31
32 31 28 26 25 24 24 23 20 23 21 13 21 20 22 23 28 28 31 31 32 32 32 33 33 33 33
26 25 25 25 25 24 23 22 23 22 20 13 21 21 23 25 30 28 29 29 29 29 29 30 30 32 35
29 29 30 29 27 25 23 22 18 18 22 20 21 21 23 24 25 30 30 29 29 28 29 30 30 31 29
22 20 18 19 25 21 23 19 20 19 22 22 22 21 17 22 24 24 24 27 26 27 28 29 30 29 28
18 15 14 19 21 20 22 20 19 20 25 22 20 21 19 19 20 22 23 22 22 23 25 24 26 27 25
17 13 12 16 21 22 23 22 22 21 25 22 20 19 16 16 16 20 21 21 22 22 21 24 23 25 26
17 14 15 19 22 22 23 24 23 24 25 22 21 17 18 18 16 19 20 20 21 20 21 20 21 22 22
16 16 21 21 20 22 22 22 22 22 23 24 21 20 20 20 19 20 19 20 19 20 21 21 22 22 23
21 17 17 22 22 22 22 21 21 20 20 22 24 21 20 20 20 20 20 20 20 20 20 20 21 21 22
21 17 17 19 20 21 19 19 19 19 19 19 18 17 17 19 22 20 20 20 20 20 20 19 19 20 22
19 18 17 17 19 18 18 19 18 18 17 16 16 15 12 10 16 24 21 20 20 21 20 19 19 20 21

GFSFLT2_sfc_30mbdewp_072.txt.gz
Dewpoint
40 40 39 39 38 37 37 37 37 39 39 37 38 41 42 42 44 45 46 47 48 50 52 53 53 53 53
39 38 38 37 36 35 36 35 34 34 34 33 34 37 40 40 41 42 43 43 44 45 46 48 49 51 51
37 38 37 36 34 33 32 31 27 27 31 33 33 32 33 36 36 37 38 40 41 41 41 42 43 44 45
38 37 36 35 33 31 29 25 25 23 24 26 28 27 32 32 30 29 30 33 36 37 38 39 39 39 40
37 36 35 33 32 28 27 24 23 24 21 20 19 20 23 26 27 29 29 30 30 32 34 34 35 36 36
36 35 34 31 27 26 24 21 15 24 21 16 21 21 22 24 28 29 30 30 32 32 32 32 31 31 31
34 32 30 28 26 25 23 22 18 22 21 13 21 20 23 23 30 30 31 32 32 31 32 34 34 34 34
29 28 26 26 25 25 23 22 23 22 20 13 21 21 23 25 30 30 30 30 29 30 30 31 31 33 34
29 29 29 28 27 24 22 20 17 19 22 19 21 21 23 24 27 30 30 30 30 30 31 31 30 31 29
22 21 21 27 28 23 24 19 18 17 22 22 21 21 19 22 24 24 25 28 27 28 28 29 30 28 27
20 16 15 21 21 20 23 21 19 19 25 22 21 21 18 18 20 22 23 22 21 22 24 25 27 27 25
17 14 12 16 21 22 23 23 23 21 26 22 20 18 15 15 15 19 20 21 21 22 21 24 23 25 26
18 16 15 18 23 24 24 24 23 24 25 22 21 17 17 17 16 18 20 20 21 20 21 20 21 21 21
18 17 22 22 21 23 22 23 22 22 24 23 21 19 20 19 19 19 19 19 19 20 20 21 21 22 22
20 18 17 20 21 22 22 21 21 20 21 23 23 21 20 19 18 19 19 19 20 20 20 19 20 21 21
22 21 17 18 20 22 21 20 19 20 20 20 19 17 16 17 21 19 20 19 19 20 20 19 19 20 21
22 21 19 18 20 20 20 19 19 18 18 17 16 16 12 7 15 23 18 19 19 20 21 20 19 19 21

GFSFLT2_sfc_30mbdewp_078.txt.gz
Dewpoint
43 43 43 42 41 39 40 40 41 40 40 39 41 41 42 43 44 45 46 46 48 50 54 56 56 57 57
41 40 40 41 39 38 37 36 37 38 36 36 36 40 40 40 41 42 43 44 45 47 48 52 54 57 57
40 39 39 37 36 36 35 32 29 37 35 35 34 34 37 37 36 37 39 41 42 43 44 46 48 51 53
40 38 38 37 36 35 32 32 27 25 27 28 29 33 33 32 29 30 32 36 39 40 41 42 43 45 46
39 38 37 35 34 33 33 30 28 29 28 24 22 22 28 28 29 30 30 31 33 36 38 38 39 40 40
38 37 37 35 33 31 30 29 29 28 26 23 20 20 21 27 30 30 30 32 32 33 33 34 34 35 35
37 37 36 34 32 30 30 32 31 24 24 19 20 19 22 21 31 31 31 34 34 34 34 34 34 33 33
35 35 33 33 33 34 33 30 24 22 22 19 19 19 22 27 31 32 31 31 32 32 32 34 36 36 36
30 31 32 32 31 30 28 26 21 19 21 18 19 20 22 27 31 32 31 30 31 33 33 32 32 31 32
30 31 31 30 28 27 29 29 22 20 20 22 20 20 22 25 28 27 31 32 31 30 31 29 31 28 27
22 23 26 29 26 22 25 29 27 26 24 27 26 24 28 25 24 25 25 26 24 25 26 25 29 27 27
18 15 14 20 24 23 24 26 26 29 26 30 29 27 26 23 21 21 23 24 25 24 24 24 26 24 25
17 18 21 22 27 27 28 27 27 28 29 28 28 26 26 26 23 21 20 22 24 25 26 25 24 23 24
19 21 21 23 22 25 25 25 25 25 27 28 28 26 25 24 25 24 24 25 24 24 26 25 24 23 23
20 19 18 20 20 24 24 24 24 23 23 25 26 26 26 26 23 22 20 20 22 25 25 23 23 24 24
25 22 19 20 21 23 24 24 23 22 22 24 25 24 22 23 25 22 18 20 22 24 24 23 24 26 23
29 28 26 24 22 22 22 22 23 23 23 24 24 23 20 16 21 24 22 23 23 23 24 24 24 26 25

GFSFLT2_sfc_30mbdewp_084.txt.gz
Dewpoint
46 45 45 44 42 41 42 42 43 43 43 40 41 42 42 42 42 43 44 45 46 48 50 51 54 57 55
45 42 42 43 41 40 39 39 40 42 41 39 38 41 40 40 40 40 42 43 44 45 47 49 51 57 56
43 41 40 39 38 38 37 35 35 41 38 37 36 36 38 36 34 34 36 39 42 43 45 46 48 51 57
42 40 39 38 37 36 35 34 31 34 34 33 33 34 35 32 31 31 32 35 38 40 42 43 45 47 50
41 39 38 36 36 36 36 34 33 30 30 29 29 26 33 31 29 31 30 32 35 37 39 39 40 42 45
40 39 39 38 36 35 34 32 33 32 30 29 26 24 25 27 30 30 30 31 33 35 35 37 37 38 39
40 39 38 38 36 34 33 33 33 30 30 28 23 22 23 25 30 31 32 34 34 34 34 35 35 35 35
39 38 38 37 36 35 34 32 25 25 27 24 21 21 23 24 30 33 33 33 34 35 36 36 36 36 37
32 36 36 37 35 35 32 29 26 24 23 21 20 22 23 28 32 32 31 32 33 35 35 34 34 35 35
32 33 34 35 35 34 32 31 28 24 22 20 21 21 20 28 30 31 32 32 34 34 34 32 30 29 30
30 30 31 30 28 28 33 31 26 25 24 24 21 25 27 23 28 28 31 32 30 31 29 26 29 29 28
26 27 28 27 23 26 28 29 30 26 25 28 24 21 25 24 23 26 26 27 27 25 26 25 29 27 25
23 22 24 25 25 26 27 28 29 29 28 28 27 27 26 23 21 22 23 25 26 25 26 25 25 26 23
22 22 26 25 24 25 24 25 23 26 28 27 26 25 25 26 24 21 24 22 26 26 26 27 27 26 25
22 24 25 25 24 25 24 24 23 23 23 25 27 26 26 24 22 25 25 25 25 25 25 25 26 26 25
23 23 23 23 24 25 25 24 24 24 24 24 24 23 22 22 26 23 24 24 25 26 25 23 22 23 26
23 23 21 22 23 24 24 24 23 24 24 24 22 20 16 9 24 27 22 20 22 24 24 23 22 25 27

GFSFLT2_sfc_30mbdewp_087.txt.gz
Dewpoint
45 45 45 44 43 42 44 44 44 44 43 42 42 42 42 42 42 42 43 44 45 46 48 50 51 53 56
45 43 43 43 42 41 40 40 41 42 44 41 40 42 41 40 40 39 41 42 43 44 46 47 50 51 56
44 42 41 40 39 39 38 37 35 39 43 39 38 38 40 37 34 33 35 38 41 42 43 45 47 50 56
43 41 40 39 38 38 37 36 34 38 37 36 37 35 36 34 31 30 31 33 38 40 41 42 44 48 52
42 40 39 37 37 37 37 36 34 33 33 33 33 30 34 34 29 31 30 31 34 37 39 40 41 45 48
41 40 39 38 38 37 36 34 34 34 31 31 28 26 25 27 30 30 30 31 32 35 36 37 38 39 43
40 40 39 39 37 35 34 34 34 32 31 30 24 24 24 27 30 31 31 34 34 34 35 35 36 37 37
41 41 40 39 38 36 35 33 28 29 30 28 23 22 23 23 28 32 34 33 34 35 36 37 37 37 36
37 39 39 38 37 35 33 30 27 25 25 23 21 21 23 25 29 33 32 33 34 34 35 36 36 36 36
31 34 36 37 38 36 33 32 27 26 24 21 20 21 19 27 31 31 31 32 33 34 34 31 31 30 29
30 31 32 33 34 33 34 33 30 29 24 21 20 24 21 25 28 29 31 32 31 33 30 27 30 30 28
28 28 29 29 26 28 31 30 28 30 26 23 20 22 24 22 24 26 28 29 28 28 27 26 29 27 26
27 27 28 27 25 26 27 28 27 27 28 27 23 23 23 21 22 24 24 25 26 25 25 24 26 25 22
26 25 25 25 24 24 24 25 24 25 27 26 25 26 25 25 20 21 23 20 25 25 26 26 27 27 26
25 24 24 25 24 24 22 23 18 21 23 25 26 26 24 24 24 22 23 25 24 25 25 24 26 26 25
25 24 24 25 24 24 22 21 19 21 21 23 24 22 21 20 25 21 25 23 24 25 24 22 22 23 25
25 25 25 24 24 23 23 21 22 23 22 22 21 17 15 11 23 27 21 23 24 25 25 23 19 24 25

GFSFLT2_sfc_30mbdewp_090.txt.gz
Dewpoint
45 45 45 44 44 44 45 45 45 46 46 45 42 43 43 42 43 43 43 44 44 45 46 47 49 51 51
44 43 44 44 42 42 42 41 42 44 45 44 42 43 43 41 40 39 39 40 42 43 44 45 46 50 51
43 42 41 41 40 40 39 38 37 39 42 44 41 40 41 40 36 34 33 35 38 41 42 43 45 49 50
43 41 40 39 40 39 38 37 37 37 41 39 39 37 38 38 33 31 31 31 33 38 40 41 43 47 48
42 40 39 37 38 38 38 37 36 35 36 35 35 33 32 36 32 30 31 30 31 36 38 39 41 46 48
41 41 40 39 38 38 37 36 35 35 33 33 32 32 28 30 30 31 31 30 31 33 36 37 38 42 46
42 41 40 39 38 36 36 35 36 33 32 32 29 28 26 24 30 31 30 34 34 34 36 36 37 38 42
42 41 40 39 38 38 37 35 31 31 32 32 25 24 24 23 28 29 33 33 34 35 36 37 38 38 38
41 41 41 41 38 36 34 34 30 28 29 27 23 22 23 23 26 33 33 33 34 34 34 36 36 36 37
36 38 40 40 39 37 35 34 30 27 26 25 21 21 19 25 29 31 31 32 32 33 33 32 32 30 31
32 33 34 36 38 36 35 35 31 30 26 24 21 21 17 25 28 29 30 31 32 32 31 29 31 29 27
30 30 31 32 32 33 34 33 31 32 27 21 19 21 21 23 25 27 29 30 29 30 28 27 29 28 29
30 29 29 29 27 28 28 28 27 28 27 23 20 20 22 19 21 25 26 28 28 27 26 24 27 25 22
30 29 28 27 26 26 27 27 27 26 27 25 22 21 22 21 20 22 23 21 25 25 24 24 25 26 25
30 27 27 26 25 25 25 24 24 25 25 25 25 24 24 24 22 21 23 23 24 25 25 24 26 26 26
30 29 27 26 25 24 23 23 20 21 23 24 24 23 22 22 24 23 22 23 24 25 24 22 22 24 26
30 29 28 27 26 25 23 21 20 19 20 22 22 18 16 13 20 25 21 23 23 24 23 22 18 22 24